Regional Weather Roundup
Issued by NWS

Home | Current Version | Previous Version | Graphics & Text | Print | Product List | Glossary On
Versions: 1 2 3 4 5 6 7 8 9 10 11 12 13 14 15 16 17 18 19 20 21 22 23 24 25 26 27 28 29 30 31 32 33 34 35 36 37 38 39 40 41 42 43 44 45 46 47 48 49 50
065
ASUS45 KSLC 041110
RWRUT

UTAH REGIONAL WEATHER ROUNDUP
NATIONAL WEATHER SERVICE SALT LAKE CITY UT
500 AM MDT WED MAY 04 2016

UTZ001>011-023>025-041200-

NORTHERN UTAH

CITY           SKY/WX    TMP DP  RH WIND       PRES   REMARKS
BRIGHAM CITY   PTCLDY    47  39  74 CALM      30.15S
HILL AFB       CLEAR     52  34  51 E18       30.14F
LOGAN          PTCLDY    39  36  89 CALM      30.16F
OGDEN          CLEAR     50  35  56 S8        30.13F
PROVO AIRPORT  CLEAR     48  34  57 CALM      30.17S
SALT LAKE CITY CLEAR     54  35  48 S10       30.13S
VERNAL         CLEAR     41  28  60 CALM      30.24R
WENDOVER       MOCLDY    46  37  71 NE3       30.12F
HEBER CITY     CLEAR     34  30  86 CALM      30.23S

$$

UTZ012>022-026-027-041200-

SOUTHERN/CENTRAL UTAH

CITY           SKY/WX    TMP DP  RH WIND       PRES   REMARKS
BLANDING       CLEAR     48  31  50 NE10      30.31S
BRYCE CANYON   PTCLDY    28  25  88 W5        30.30F WCI  23
CEDAR CITY     MOCLDY    42  32  67 CALM      30.16F
DELTA          MOCLDY    45  36  70 CALM      30.15R
HANKSVILLE     CLEAR     43  34  70 CALM      30.20S
MILFORD        MOCLDY    41  31  67 CALM      30.15S
MOAB/CYNLANDS  CLEAR     46  34  62 CALM      30.16F
PRICE          CLEAR     44  28  53 N9        30.23F
ST GEORGE      SUNNY     63  36  36 S8        30.07S
KANAB          PTCLDY    48  32  53 NE5       30.20S

$$

REGIONAL REPORTS     COLORADO/ARIZONA

CITY           SKY/WX    TMP DP  RH WIND       PRES   REMARKS
CRAIG, CO      CLOUDY    31  27  85 SW5       30.29S WCI  26
GRAND JUNCTION CLEAR     47  32  56 E10       30.21S
RIFLE          CLOUDY    39  31  72 SE3       30.28R
MONTROSE       CLEAR     42  29  59 S6        30.28F
CORTEZ         CLEAR     33  27  78 CALM      30.27S
PAGE, AZ       PTCLDY    55  33  43 W3        30.14S
GRAND CANYON   PTCLDY    37  30  75 CALM      30.23F
KINGMAN        CLEAR     63  34  33 VRB3      30.01S
FLAGSTAFF      CLEAR     40  30  67 E6        30.23F

$$

REGIONAL REPORTS    NEVADA/IDAHO/WYOMING

CITY           SKY/WX    TMP DP  RH WIND       PRES   REMARKS
LAS VEGAS, NV  CLEAR     67  40  37 W6        29.90F
ELY            MOCLDY    40  33  76 CALM      30.19S
ELKO           PTCLDY    49  37  63 E5        30.11S
POCATELLO, ID  CLOUDY    44  37  76 E8        30.15F
BURLEY         CLEAR     46  34  62 SE5       30.09F
EVANSTON, WY   CLOUDY    45  25  45 SE5       30.28F
ROCK SPRINGS   CLOUDY    41  27  57 S7        30.28S
KEMMERER         N/A     36  27  69 N13       30.28F WCI  27

$$




USA.gov is the U.S. government's official web portal to all federal, state and local government web resources and services.